User: anonymous   Login
Location: Geography Hall
(41.1195°N, 80.5706°W)
Time: 11:45:10
(UTC+00:00)
Language:

Cosmos 1553 Rocket - Orbit

View from above orbital plane
View from above orbital plane
View from above satellite
View from above satellite

Ground track
Ground track

The orbit data is extracted from the following two-line orbital elements,

1 14974U 84046B   21022.89983078  .00000105  00000-0  91064-4 0  9996
2 14974  82.9335 243.4148 0043911 279.4854  90.3928 13.76942206843028
Epoch (UTC): 22 January 2021 21:35:45
Eccentricity: 0.0043911
inclination: 82.9335°
perigee height: 942 km
apogee height: 1007 km
right ascension of ascending node: 243.4148°
argument of perigee: 279.4854°
revolutions per day: 13.76942206
mean anomaly at epoch: 90.3928°
orbit number at epoch: 84302

The dashed part of the orbit path shows where the satellite is in the earth's shadow,  

DLR